DW8913 Weather Reports


time (UTC)temp
F
wind
direction
speed
knots
gust
knots
rain 1hr
in
rain 24hr
in
rain mn
in
humidity
%
barometer
mb
20260509204528 64 96 1.7 5.2 0.00 0.03 0.03 77 1009.0
20260509203116 65 89 0.9 5.2 0.00 0.03 0.03 78 1009.0
20260509201553 64 136 1.7 7.0 0.00 0.03 0.03 79 1009.1
20260509200015 63 94 2.6 9.6 0.00 0.03 0.03 81 1009.3
20260509194555 62 174 1.7 6.1 0.01 0.03 0.03 86 1009.7
20260509193034 61 46 1.7 7.0 0.02 0.03 0.03 87 1009.8
20260509191608 61 222 1.7 5.2 0.03 0.03 0.03 89 1009.8
20260509190037 60 140 0.9 5.2 0.03 0.03 0.03 89 1010.1
20260509184501 60 71 1.7 6.1 0.02 0.02 0.02 88 1010.1
20260509183044 60 91 4.3 11.3 0.00 0.00 0.00 86 1010.8
20260509181514 61 153 2.6 7.0 0.00 0.00 0.00 84 1010.7
20260509180053 61 77 1.7 7.0 0.00 0.00 0.00 82 1010.7
20260509174525 61 148 2.6 7.8 0.00 0.00 0.00 83 1010.7
20260509173109 61 281 2.6 7.0 0.00 0.00 0.00 79 1010.9
20260509171542 62 146 2.6 6.1 0.00 0.00 0.00 76 1011.0
20260509170003 64 208 1.7 5.2 0.00 0.00 0.00 73 1011.3
20260509164552 65 172 1.7 7.8 0.00 0.00 0.00 73 1011.1
20260509163020 66 104 1.7 6.1 0.00 0.00 0.00 72 1011.0
20260509161602 66 278 1.7 5.2 0.00 0.00 0.00 74 1011.3
20260509160030 64 56 1.7 6.1 0.00 0.00 0.00 74 1011.9
20260509154606 64 153 2.6 5.2 0.00 0.00 0.00 75 1012.1
20260509153022 63 96 0.9 4.3 0.00 0.00 0.00 77 1012.4
20260509151605 62 120 1.7 6.1 0.00 0.00 0.00 77 1012.5
20260509150029 62 180 0.9 5.2 0.00 0.00 0.00 78 1012.6
20260509144710 62 96 0.9 6.1 0.00 0.00 0.00 78 1012.5
20260509143048 62 41 0.9 6.1 0.00 0.00 0.00 78 1012.5
20260509141520 62 263 0.9 4.3 0.00 0.00 0.00 77 1012.4
20260509140050 63 75 1.7 5.2 0.00 0.00 0.00 76 1012.4
20260509134527 61 180 1.7 6.1 0.00 0.00 0.00 79 1012.6
20260509133107 61 151 0.9 3.5 0.00 0.00 0.00 79 1012.6
20260509131542 61 72 0.9 4.3 0.00 0.00 0.00 79 1012.7
20260509130012 61 69 0.9 6.1 0.00 0.00 0.00 80 1012.8
20260509124604 61 61 1.7 6.1 0.00 0.00 0.00 78 1012.7
20260509123022 61 126 1.7 6.1 0.00 0.00 0.00 79 1012.6
20260509121608 60 132 0.9 5.2 0.00 0.00 0.00 80 1012.7
20260509120043 59 77 0.9 5.2 0.00 0.00 0.00 82 1012.7
20260509114511 58 77 1.7 6.1 0.00 0.00 0.00 83 1012.7
20260509113055 58 79 0.9 5.2 0.00 0.00 0.00 83 1012.7
20260509111558 57 90 0.9 5.2 0.00 0.00 0.00 84 1012.8
20260509110108 56 124 0.9 6.1 0.00 0.00 0.00 85 1012.8
20260509104538 56 105 1.7 7.0 0.00 0.00 0.00 85 1012.8
20260509103005 56 147 1.7 8.7 0.00 0.00 0.00 85 1012.8
20260509101549 56 108 1.7 6.1 0.00 0.00 0.00 84 1012.7
20260509100025 56 139 0.9 7.0 0.00 0.00 0.00 84 1012.5
20260509094555 56 160 0.9 5.2 0.00 0.00 0.00 83 1012.6
20260509093028 56 123 1.7 7.0 0.00 0.00 0.00 82 1012.5
20260509091608 56 157 1.7 7.0 0.00 0.00 0.00 82 1012.4
20260509090046 56 107 1.7 4.3 0.00 0.00 0.00 81 1012.6
20260509084516 56 150 1.7 6.1 0.00 0.00 0.00 79 1012.6
20260509083054 56 110 1.7 6.1 0.00 0.00 0.00 78 1012.6
20260509081534 56 72 2.6 7.8 0.00 0.00 0.00 78 1012.6
20260509080107 56 129 1.7 5.2 0.00 0.00 0.00 77 1012.7
20260509074538 56 165 2.6 6.1 0.00 0.00 0.00 76 1012.7
20260509073008 56 83 1.7 4.3 0.00 0.00 0.00 76 1012.8
20260509071605 55 110 0.9 6.1 0.00 0.00 0.00 77 1012.8
20260509070029 55 133 1.7 7.0 0.00 0.00 0.00 77 1012.7
20260509064608 55 85 0.9 3.5 0.00 0.00 0.00 76 1012.7
20260509063039 55 152 0.9 4.3 0.00 0.00 0.00 75 1012.7
20260509061507 55 165 0.9 4.3 0.00 0.00 0.00 74 1012.7
20260509054520 56 96 1.7 6.1 0.00 0.00 0.00 72 1012.9
20260509053104 55 139 1.7 4.3 0.00 0.00 0.00 70 1013.0
20260509051534 55 85 0.9 5.2 0.00 0.00 0.00 69 1013.1
20260509050014 55 93 1.7 6.1 0.00 0.00 0.00 70 1013.0
20260509044551 55 141 0.9 5.2 0.00 0.00 0.00 72 1013.1
20260509043018 55 119 1.7 6.1 0.00 0.00 0.00 73 1013.2
20260509041601 55 86 1.7 6.1 0.00 0.00 0.00 73 1013.2
20260509040031 55 110 1.7 7.0 0.00 0.00 0.00 72 1013.3
20260509034611 55 145 0.9 5.2 0.00 0.00 0.00 71 1013.4
20260509033040 55 90 1.7 5.2 0.00 0.00 0.00 73 1013.2
20260509031513 55 94 1.7 5.2 0.00 0.00 0.00 74 1013.2
20260509030052 55 72 1.7 5.2 0.00 0.00 0.00 74 1013.1
20260509024526 55 60 0.9 6.1 0.00 0.00 0.00 74 1013.1
20260509023105 55 141 1.7 7.0 0.00 0.00 0.00 74 1013.1
20260509021539 55 96 2.6 6.1 0.00 0.00 0.00 74 1013.3
20260509020009 55 56 1.7 6.1 0.00 0.00 0.00 73 1013.2
20260509014552 56 79 1.7 5.2 0.00 0.00 0.00 74 1013.1
20260509013034 56 81 1.7 7.0 0.00 0.00 0.00 75 1013.1
20260509011609 56 99 1.7 7.0 0.00 0.00 0.00 74 1012.9
20260509010038 56 87 1.7 7.0 0.00 0.00 0.00 72 1012.6
20260509004506 56 68 1.7 7.0 0.00 0.00 0.00 69 1012.4
20260509003045 57 150 2.6 7.8 0.00 0.00 0.00 66 1012.3
20260509001513 57 94 2.6 7.8 0.00 0.00 0.00 63 1012.2
20260509000058 57 72 1.7 7.8 0.00 0.00 0.00 64 1012.2
20260508234526 57 79 2.6 7.0 0.00 0.00 0.00 63 1012.1
20260508233107 57 103 2.6 9.6 0.00 0.00 0.00 64 1011.9
20260508231537 57 149 1.7 8.7 0.00 0.00 0.00 65 1011.8
20260508230017 58 116 2.6 9.6 0.00 0.00 0.00 66 1011.8
20260508224600 57 169 2.6 9.6 0.00 0.00 0.00 68 1011.7
20260508223030 57 174 1.7 9.6 0.00 0.00 0.00 65 1011.6
20260508221606 58 189 3.5 9.6 0.00 0.00 0.00 63 1011.6
20260508220032 58 58 3.5 7.8 0.00 0.00 0.00 60 1011.7
20260508214606 58 143 3.5 7.0 0.00 0.00 0.00 60 1011.7
20260508213042 59 98 2.6 10.4 0.00 0.00 0.00 58 1011.9
20260508211506 59 70 0.9 6.1 0.00 0.00 0.00 56 1011.9
20260508210048 59 118 2.6 7.8 0.00 0.00 0.00 54 1012.0